• Em Portugal
  • Lista de países
  • Para 7 dias
  • Temperatura da água
  • Mapas de satélite
  • Mapa do tempo
  • Widgets de tempo
  • user-avatar
    Iniciar Sessão

    Previsão horária em Robertsport

    Hoje, 23 Maio, Quarta-feira

    Tempo Temperatura Precipitação Vento Pressão Humidade
    00:00 +27°C° 0 mm 2 m/s 756 mmHg 96%
    01:00 +27°C° 0 mm 2 m/s 756 mmHg 96%
    02:00 +27°C° 0 mm 3 m/s 755 mmHg 96%
    03:00 +27°C° 0,1 mm 3 m/s 755 mmHg 96%
    04:00 +27°C° 0,1 mm 2 m/s 755 mmHg 96%
    05:00 +27°C° 0,1 mm 2 m/s 755 mmHg 96%
    06:00 +28°C° 0,1 mm 1 m/s 756 mmHg 93%
    07:00 +29°C° 0,1 mm 1 m/s 756 mmHg 89%
    08:00 +30°C° 0,1 mm 1 m/s 757 mmHg 86%
    09:00 +30°C° 0,1 mm 2 m/s 757 mmHg 81%
    10:00 +31°C° 0,1 mm 2 m/s 757 mmHg 77%
    11:00 +32°C° 0,1 mm 2 m/s 757 mmHg 72%
    12:00 +32°C° 0,7 mm 2 m/s 756 mmHg 73%
    13:00 +33°C° 0,7 mm 3 m/s 755 mmHg 74%
    14:00 +33°C° 0,7 mm 3 m/s 755 mmHg 76%
    15:00 +31°C° 1 mm 3 m/s 755 mmHg 80%
    16:00 +30°C° 1 mm 3 m/s 755 mmHg 84%
    17:00 +29°C° 1 mm 2 m/s 755 mmHg 89%
    18:00 +28°C° 0 mm 2 m/s 755 mmHg 90%
    19:00 +28°C° 0 mm 2 m/s 756 mmHg 92%
    20:00 +27°C° 0 mm 1 m/s 756 mmHg 93%
    21:00 +27°C° 0,4 mm 1 m/s 757 mmHg 94%
    22:00 +27°C° 0,4 mm 1 m/s 757 mmHg 95%
    23:00 +25°C° 0,4 mm 0 m/s 757 mmHg 96%

    Amanhã, 24 Maio, Quinta-feira

    Tempo Temperatura Precipitação Vento Pressão Humidade
    00:00 +27°C° 0,1 mm 1 m/s 757 mmHg 96%
    01:00 +27°C° 0,1 mm 1 m/s 756 mmHg 96%
    02:00 +26°C° 0,1 mm 2 m/s 756 mmHg 96%
    03:00 +26°C° 0 mm 1 m/s 756 mmHg 96%
    04:00 +26°C° 0 mm 1 m/s 756 mmHg 96%
    05:00 +26°C° 0 mm 1 m/s 756 mmHg 96%
    06:00 +27°C° 0,1 mm 1 m/s 756 mmHg 92%
    07:00 +29°C° 0,1 mm 1 m/s 756 mmHg 87%
    08:00 +30°C° 0,1 mm 1 m/s 757 mmHg 83%
    09:00 +31°C° 0,2 mm 1 m/s 757 mmHg 77%
    10:00 +32°C° 0,2 mm 2 m/s 757 mmHg 72%
    11:00 +34°C° 0,2 mm 2 m/s 757 mmHg 66%
    12:00 +33°C° 1 mm 3 m/s 756 mmHg 71%
    13:00 +33°C° 1 mm 3 m/s 755 mmHg 76%
    14:00 +31°C° 1 mm 3 m/s 755 mmHg 81%
    15:00 +30°C° 2,3 mm 3 m/s 755 mmHg 85%
    16:00 +29°C° 2,3 mm 2 m/s 755 mmHg 89%
    17:00 +28°C° 2,3 mm 2 m/s 755 mmHg 93%
    18:00 +28°C° 0,1 mm 1 m/s 755 mmHg 93%
    19:00 +27°C° 0,1 mm 1 m/s 756 mmHg 94%
    20:00 +27°C° 0,1 mm 1 m/s 757 mmHg 94%
    21:00 +27°C° 0 mm 1 m/s 757 mmHg 94%
    22:00 +27°C° 0 mm 1 m/s 757 mmHg 94%
    23:00 +27°C° 0 mm 1 m/s 757 mmHg 95%

    Depois de amanhã, 25 Maio, Sexta-feira

    Tempo Temperatura Precipitação Vento Pressão Humidade
    00:00 +27°C° 0 mm 1 m/s 756 mmHg 95%
    01:00 +26°C° 0 mm 2 m/s 755 mmHg 95%
    02:00 +26°C° 0 mm 2 m/s 755 mmHg 95%
    03:00 +26°C° 0 mm 2 m/s 755 mmHg 96%
    04:00 +26°C° 0 mm 1 m/s 755 mmHg 96%
    05:00 +26°C° 0 mm 1 m/s 755 mmHg 96%
    06:00 +27°C° 0,1 mm 1 m/s 755 mmHg 91%
    07:00 +29°C° 0,1 mm 1 m/s 756 mmHg 87%
    08:00 +30°C° 0,1 mm 1 m/s 756 mmHg 82%
    09:00 +31°C° 0,2 mm 1 m/s 756 mmHg 77%
    10:00 +32°C° 0,2 mm 2 m/s 756 mmHg 72%
    11:00 +34°C° 0,2 mm 2 m/s 756 mmHg 67%
    12:00 +34°C° 0,6 mm 2 m/s 756 mmHg 67%
    13:00 +34°C° 0,6 mm 3 m/s 755 mmHg 68%
    14:00 +34°C° 0,6 mm 3 m/s 754 mmHg 69%
    15:00 +33°C° 0 mm 3 m/s 754 mmHg 71%
    16:00 +31°C° 0 mm 3 m/s 754 mmHg 73%
    17:00 +32°C° 0 mm 4 m/s 754 mmHg 75%
    18:00 +29°C° 0 mm 3 m/s 754 mmHg 80%
    19:00 +28°C° 0 mm 3 m/s 755 mmHg 86%
    20:00 +27°C° 0 mm 2 m/s 756 mmHg 91%
    21:00 +27°C° 0 mm 2 m/s 756 mmHg 92%
    22:00 +27°C° 0 mm 2 m/s 756 mmHg 93%
    23:00 +27°C° 0 mm 2 m/s 756 mmHg 95%

    26 Maio, Sábado

    Tempo Temperatura Precipitação Vento Pressão Humidade
    00:00 +27°C° 0,1 mm 2 m/s 755 mmHg 95%
    01:00 +26°C° 0,1 mm 2 m/s 755 mmHg 95%
    02:00 +26°C° 0,1 mm 2 m/s 754 mmHg 96%
    03:00 +26°C° 0 mm 2 m/s 754 mmHg 96%
    04:00 +26°C° 0 mm 2 m/s 754 mmHg 96%
    05:00 +26°C° 0 mm 2 m/s 755 mmHg 97%
    06:00 +27°C° 0,2 mm 1 m/s 755 mmHg 92%
    07:00 +28°C° 0,2 mm 1 m/s 756 mmHg 87%
    08:00 +29°C° 0,2 mm 1 m/s 756 mmHg 82%
    09:00 +30°C° 0,2 mm 2 m/s 756 mmHg 78%
    10:00 +31°C° 0,2 mm 2 m/s 756 mmHg 74%
    11:00 +32°C° 0,2 mm 2 m/s 756 mmHg 70%
    12:00 +32°C° 0,9 mm 2 m/s 755 mmHg 73%
    13:00 +31°C° 0,9 mm 3 m/s 755 mmHg 76%
    14:00 +31°C° 0,9 mm 3 m/s 754 mmHg 80%
    15:00 +30°C° 0,6 mm 3 m/s 754 mmHg 82%
    16:00 +30°C° 0,6 mm 3 m/s 754 mmHg 85%
    17:00 +29°C° 0,6 mm 3 m/s 754 mmHg 87%
    18:00 +28°C° 0,8 mm 3 m/s 755 mmHg 90%
    19:00 +28°C° 0,8 mm 3 m/s 756 mmHg 92%
    20:00 +27°C° 0,8 mm 3 m/s 756 mmHg 95%
    21:00 +27°C° 0,1 mm 3 m/s 756 mmHg 95%
    22:00 +27°C° 0,1 mm 3 m/s 756 mmHg 95%
    23:00 +27°C° 0,1 mm 2 m/s 756 mmHg 95%

    27 Maio, Domingo

    Tempo Temperatura Precipitação Vento Pressão Humidade
    00:00 +27°C° 0 mm 2 m/s 756 mmHg 95%
    01:00 +27°C° 0 mm 2 m/s 755 mmHg 95%
    02:00 +26°C° 0 mm 2 m/s 755 mmHg 96%
    03:00 +26°C° 1,7 mm 2 m/s 755 mmHg 95%
    04:00 +26°C° 1,7 mm 1 m/s 755 mmHg 94%
    05:00 +25°C° 1,7 mm 0 m/s 756 mmHg 94%
    06:00 +25°C° 0,3 mm 0 m/s 756 mmHg 93%
    07:00 +25°C° 0,3 mm 0 m/s 757 mmHg 92%
    08:00 +25°C° 0,3 mm 0 m/s 757 mmHg 92%
    09:00 +29°C° 0,1 mm 1 m/s 757 mmHg 86%
    10:00 +30°C° 0,1 mm 1 m/s 757 mmHg 81%
    11:00 +31°C° 0,1 mm 2 m/s 756 mmHg 76%
    12:00 +31°C° 0,5 mm 2 m/s 756 mmHg 76%
    13:00 +31°C° 0,5 mm 3 m/s 755 mmHg 77%
    14:00 +31°C° 0,5 mm 3 m/s 755 mmHg 77%
    15:00 +30°C° 0,4 mm 3 m/s 755 mmHg 79%
    16:00 +30°C° 0,4 mm 3 m/s 755 mmHg 81%
    17:00 +29°C° 0,4 mm 3 m/s 756 mmHg 83%
    18:00 +28°C° 0,1 mm 3 m/s 756 mmHg 87%
    19:00 +28°C° 0,1 mm 2 m/s 757 mmHg 90%
    20:00 +27°C° 0,1 mm 2 m/s 757 mmHg 93%
    21:00 +27°C° 0 mm 2 m/s 757 mmHg 93%
    22:00 +27°C° 0 mm 2 m/s 757 mmHg 93%
    23:00 +27°C° 0 mm 2 m/s 757 mmHg 94%

    28 Maio, Segunda-feira

    Tempo Temperatura Precipitação Vento Pressão Humidade
    00:00 +26°C° 0,1 mm 2 m/s 757 mmHg 94%
    01:00 +26°C° 0,1 mm 2 m/s 756 mmHg 94%
    02:00 +26°C° 0,1 mm 1 m/s 756 mmHg 95%
    03:00 +26°C° 0,1 mm 1 m/s 756 mmHg 95%
    04:00 +26°C° 0,1 mm 1 m/s 756 mmHg 95%
    05:00 +24°C° 0,1 mm 0 m/s 757 mmHg 95%
    06:00 +27°C° 0 mm 1 m/s 757 mmHg 91%
    07:00 +28°C° 0 mm 1 m/s 757 mmHg 86%
    08:00 +29°C° 0 mm 1 m/s 757 mmHg 82%
    09:00 +30°C° 0,1 mm 1 m/s 757 mmHg 77%
    10:00 +31°C° 0,1 mm 2 m/s 757 mmHg 72%
    11:00 +32°C° 0,1 mm 2 m/s 756 mmHg 68%
    12:00 +33°C° 0,4 mm 3 m/s 756 mmHg 70%
    13:00 +33°C° 0,4 mm 3 m/s 755 mmHg 72%
    14:00 +33°C° 0,4 mm 3 m/s 755 mmHg 75%
    15:00 +31°C° 0,4 mm 3 m/s 755 mmHg 78%
    16:00 +30°C° 0,4 mm 3 m/s 755 mmHg 82%
    17:00 +29°C° 0,4 mm 3 m/s 755 mmHg 86%
    18:00 +28°C° 0 mm 3 m/s 755 mmHg 88%
    19:00 +28°C° 0 mm 2 m/s 756 mmHg 90%
    20:00 +27°C° 0 mm 2 m/s 756 mmHg 93%
    21:00 +27°C° 0,2 mm 2 m/s 756 mmHg 93%
    22:00 +27°C° 0,2 mm 2 m/s 756 mmHg 94%
    23:00 +27°C° 0,2 mm 2 m/s 756 mmHg 94%
    Mostrar mais